Total_Precipitation_Accumulation
0.44 0.45 0.41 0.38 0.33 0.31 0.29 0.26 0.23 0.21 0.19 0.18 0.18 0.18 0.20 0.19 0.18 0.19 0.17 0.12 0.09 0.09 0.13 0.18 0.26 0.32 0.34 0.36 0.37 0.37 0.33 0.28 0.22 0.19 0.15 0.13 0.10 0.08 0.07 0.07 0.07 0.07 0.07
0.53 0.51 0.49 0.46 0.40 0.38 0.35 0.34 0.32 0.31 0.28 0.25 0.21 0.19 0.18 0.18 0.17 0.16 0.16 0.15 0.12 0.11 0.11 0.16 0.25 0.35 0.44 0.51 0.54 0.53 0.47 0.39 0.35 0.31 0.27 0.22 0.18 0.15 0.13 0.12 0.11 0.09 0.09
0.59 0.60 0.58 0.51 0.46 0.46 0.47 0.49 0.48 0.46 0.38 0.34 0.28 0.27 0.26 0.25 0.23 0.21 0.19 0.17 0.16 0.16 0.16 0.17 0.24 0.35 0.46 0.57 0.67 0.73 0.69 0.58 0.47 0.41 0.39 0.34 0.30 0.25 0.21 0.19 0.17 0.15 0.14
0.64 0.69 0.69 0.63 0.58 0.58 0.58 0.57 0.55 0.54 0.47 0.42 0.37 0.36 0.35 0.33 0.31 0.30 0.29 0.26 0.23 0.20 0.20 0.21 0.26 0.34 0.44 0.53 0.68 0.84 0.91 0.81 0.65 0.55 0.50 0.46 0.44 0.42 0.38 0.33 0.28 0.23 0.20
0.69 0.69 0.67 0.67 0.69 0.65 0.63 0.64 0.58 0.56 0.51 0.49 0.48 0.44 0.40 0.38 0.35 0.35 0.35 0.35 0.34 0.32 0.30 0.29 0.26 0.26 0.32 0.41 0.53 0.74 0.92 0.93 0.80 0.70 0.63 0.59 0.56 0.53 0.49 0.44 0.39 0.32 0.27
0.79 0.75 0.71 0.74 0.77 0.71 0.62 0.62 0.62 0.61 0.55 0.57 0.57 0.50 0.46 0.43 0.40 0.37 0.36 0.37 0.37 0.37 0.36 0.35 0.33 0.31 0.30 0.33 0.41 0.56 0.74 0.89 0.90 0.83 0.75 0.70 0.64 0.61 0.58 0.56 0.53 0.50 0.45
0.95 0.96 0.88 0.86 0.89 0.83 0.74 0.76 0.83 0.80 0.73 0.74 0.69 0.54 0.45 0.43 0.41 0.40 0.38 0.37 0.34 0.34 0.32 0.32 0.32 0.32 0.32 0.34 0.36 0.44 0.58 0.76 0.89 0.92 0.87 0.82 0.79 0.74 0.74 0.75 0.73 0.70 0.66
1.15 1.15 1.13 1.12 1.10 1.02 0.94 0.93 0.95 0.92 0.89 0.92 0.89 0.81 0.59 0.45 0.38 0.36 0.37 0.36 0.37 0.37 0.34 0.33 0.33 0.33 0.31 0.31 0.34 0.37 0.44 0.58 0.76 0.94 1.02 0.99 0.95 0.91 0.91 0.92 0.94 0.91 0.86
1.38 1.30 1.28 1.33 1.30 1.20 1.09 1.06 1.06 1.04 1.04 1.07 1.03 1.05 0.83 0.57 0.44 0.38 0.35 0.32 0.35 0.39 0.41 0.40 0.38 0.35 0.31 0.29 0.29 0.32 0.35 0.41 0.60 0.84 1.02 1.07 1.05 1.05 1.10 1.14 1.18 1.18 1.12
1.49 1.47 1.44 1.41 1.40 1.36 1.25 1.20 1.20 1.18 1.15 1.12 1.10 1.00 0.92 0.78 0.69 0.53 0.39 0.35 0.32 0.33 0.37 0.41 0.41 0.40 0.40 0.38 0.37 0.36 0.36 0.35 0.45 0.70 0.99 1.18 1.22 1.24 1.30 1.37 1.43 1.49 1.47
1.49 1.47 1.45 1.40 1.32 1.29 1.29 1.28 1.26 1.23 1.15 1.07 1.03 0.99 0.93 0.79 0.67 0.64 0.49 0.37 0.33 0.30 0.30 0.34 0.38 0.40 0.43 0.44 0.43 0.47 0.50 0.47 0.52 0.67 0.92 1.19 1.38 1.48 1.54 1.57 1.57 1.59 1.59
1.53 1.49 1.48 1.40 1.29 1.22 1.18 1.19 1.20 1.18 1.14 1.08 1.01 0.97 0.95 0.88 0.74 0.71 0.66 0.51 0.44 0.36 0.33 0.33 0.36 0.39 0.42 0.46 0.52 0.65 0.66 0.67 0.71 0.83 1.03 1.26 1.44 1.55 1.63 1.70 1.75 1.73 1.69
1.39 1.39 1.43 1.42 1.37 1.32 1.33 1.30 1.28 1.21 1.18 1.12 1.05 0.97 0.94 0.88 0.81 0.81 0.82 0.69 0.58 0.46 0.40 0.38 0.39 0.45 0.50 0.55 0.63 0.82 0.83 0.86 0.89 0.99 1.19 1.35 1.41 1.43 1.47 1.58 1.74 1.84 1.84
1.35 1.33 1.34 1.35 1.36 1.31 1.28 1.28 1.28 1.25 1.24 1.20 1.12 1.03 0.95 0.87 0.85 0.89 0.94 0.98 0.93 0.73 0.59 0.54 0.52 0.57 0.65 0.73 0.87 1.01 0.92 1.04 1.07 1.15 1.29 1.44 1.40 1.29 1.24 1.30 1.42 1.56 1.60
1.33 1.31 1.30 1.24 1.22 1.19 1.17 1.16 1.15 1.13 1.12 1.11 1.07 1.04 0.99 0.93 0.93 0.97 1.04 1.15 1.30 1.22 0.96 0.76 0.73 0.75 0.81 0.88 1.02 0.97 0.92 1.12 1.15 1.15 1.21 1.22 1.15 1.08 1.06 1.07 1.11 1.19 1.24
1.07 1.13 1.16 1.15 1.11 1.10 1.08 1.07 1.02 0.99 0.98 0.94 0.92 0.95 0.96 0.95 0.98 1.00 1.07 1.15 1.26 1.35 1.22 0.89 0.77 0.80 0.90 0.97 1.09 0.98 0.92 1.07 1.05 1.05 1.05 1.00 0.95 0.91 0.90 0.89 0.87 0.89 0.92
0.86 0.91 1.01 1.08 1.05 1.03 1.01 0.99 0.95 0.91 0.89 0.86 0.85 0.86 0.88 0.87 0.92 0.95 0.99 1.07 1.18 1.32 1.37 1.13 0.96 0.94 0.98 0.98 0.97 0.87 0.81 0.81 0.79 0.87 0.84 0.79 0.76 0.74 0.73 0.73 0.74 0.77 0.77
0.78 0.78 0.77 0.80 0.86 0.89 0.90 0.91 0.89 0.85 0.82 0.80 0.79 0.81 0.82 0.84 0.89 0.93 1.00 1.07 1.13 1.20 1.26 1.16 0.98 0.90 0.84 0.77 0.73 0.69 0.63 0.60 0.59 0.69 0.66 0.61 0.59 0.57 0.55 0.56 0.60 0.62 0.63
0.62 0.66 0.65 0.64 0.64 0.64 0.66 0.71 0.77 0.79 0.78 0.76 0.78 0.82 0.84 0.87 0.91 0.94 1.00 1.05 1.07 1.05 1.03 0.97 0.84 0.71 0.65 0.61 0.61 0.58 0.52 0.50 0.48 0.55 0.57 0.53 0.50 0.48 0.45 0.46 0.48 0.50 0.51
0.36 0.39 0.44 0.47 0.50 0.52 0.52 0.53 0.57 0.65 0.72 0.76 0.78 0.82 0.87 0.95 1.02 1.06 1.06 1.04 1.00 0.96 0.91 0.86 0.78 0.68 0.60 0.53 0.53 0.54 0.51 0.45 0.41 0.39 0.45 0.45 0.45 0.44 0.41 0.38 0.36 0.37 0.41
0.17 0.21 0.26 0.30 0.34 0.39 0.43 0.47 0.48 0.52 0.57 0.65 0.74 0.82 0.88 0.99 1.02 0.96 0.88 0.81 0.76 0.75 0.74 0.74 0.69 0.60 0.52 0.48 0.46 0.42 0.41 0.40 0.38 0.34 0.35 0.35 0.34 0.34 0.33 0.34 0.34 0.33 0.35
0.12 0.14 0.18 0.22 0.27 0.32 0.44 0.45 0.42 0.45 0.53 0.59 0.64 0.69 0.76 0.81 0.76 0.72 0.67 0.62 0.62 0.66 0.66 0.59 0.52 0.44 0.37 0.32 0.32 0.36 0.40 0.46 0.45 0.32 0.31 0.32 0.31 0.33 0.30 0.29 0.33 0.34 0.34
0.18 0.19 0.20 0.22 0.26 0.35 0.46 0.47 0.52 0.49 0.53 0.57 0.57 0.55 0.52 0.52 0.53 0.46 0.47 0.47 0.47 0.48 0.45 0.41 0.39 0.33 0.29 0.27 0.33 0.39 0.41 0.40 0.34 0.25 0.29 0.34 0.30 0.29 0.25 0.26 0.32 0.32 0.34
0.37 0.37 0.37 0.37 0.40 0.48 0.54 0.51 0.50 0.47 0.46 0.45 0.41 0.37 0.34 0.33 0.34 0.36 0.38 0.40 0.34 0.29 0.28 0.25 0.23 0.22 0.24 0.28 0.34 0.41 0.41 0.41 0.35 0.29 0.32 0.38 0.32 0.27 0.22 0.23 0.29 0.30 0.33
0.63 0.62 0.62 0.60 0.57 0.55 0.51 0.41 0.35 0.31 0.30 0.28 0.25 0.23 0.22 0.21 0.25 0.30 0.31 0.31 0.29 0.27 0.26 0.27 0.27 0.26 0.28 0.31 0.34 0.38 0.45 0.54 0.49 0.36 0.30 0.32 0.29 0.26 0.25 0.25 0.27 0.33 0.35
0.61 0.58 0.56 0.52 0.46 0.39 0.32 0.24 0.18 0.15 0.15 0.14 0.14 0.14 0.17 0.18 0.25 0.31 0.28 0.27 0.27 0.25 0.26 0.28 0.28 0.26 0.25 0.26 0.31 0.29 0.33 0.52 0.54 0.41 0.24 0.26 0.29 0.34 0.45 0.32 0.29 0.33 0.38